Home   Weather   Brattleboro   Past weeks

Flag for USA Past Weather in Brattleboro, Vermont, USA — Yesterday and Last 2 Weeks

Now
35 °F

Overcast.


Feels Like: 30 °F
Forecast: 19 / 36 °F
Wind: 6 mph from South

Location: Keene / Dillant

Current Time: Jan 24, 2018 at 2:41:57 am

Latest Report: Jan 24, 2018 at 1:56 am


Visibility: 10 mi

Pressure: 29.65 "Hg

Humidity: 100%

Dew Point: 35 °F

Location of BrattleboroLocation

Past Weather in Brattleboro — Graph

°F

Brattleboro Temperature Yesterday

Maximum temperature yesterday: 38 °F (at 3:56 pm)
Minimum temperature yesterday: 28 °F (at 11:06 pm)
Average temperature yesterday: 33 °F

High & Low Weather Summary for the Past Weeks

 TemperatureHumidityPressure
High57 °F (Jan 12, 2:56 pm)100% (Jan 11, 9:18 pm)30.84 "Hg (Jan 11, 9:18 pm)
Low2 °F (Jan 15, 7:56 am)34% (Jan 15, 12:56 pm)29.43 "Hg (Jan 13, 6:56 am)
Average29 °F83%30.14 "Hg
* Reported Jan 9 12:56 am — Jan 24 12:56 am, Brattleboro. Weather by CustomWeather, © 2018

Note: Actual official high and low records may vary slightly from our data, if they occured in-between our weather recording intervals... More about our weather records

Advertising

Brattleboro Weather History for the Previous 24 Hours

Scroll right to see more
 ConditionsComfort  
Time TempWeatherWind HumidityBarometerVisibility
12:56 am
Wed, Jan 24
30 °FIce fog.6 mph96%29.64 "Hg3 mi
12:29 am30 °FIce fog.No wind93%29.59 "Hg5 mi
11:56 pm
Tue, Jan 23
30 °FMostly cloudy.No wind100%29.65 "Hg9 mi
11:06 pm28 °FIce fog.5 mph100%29.59 "Hg4 mi
10:29 pm30 °FIce fog.No wind100%29.59 "Hg1 mi
9:56 pm31 °FIce fog.No wind96%29.64 "Hg0 mi
9:38 pm30 °FIce fog.No wind100%29.58 "Hg1 mi
9:19 pm32 °FFog.No wind93%29.58 "Hg0 mi
8:56 pm32 °FIce fog.No wind100%29.62 "Hg1 mi
7:56 pm34 °FLight rain. Low clouds.No wind97%29.64 "Hg9 mi
6:56 pm34 °FLight rain. Fog.No wind97%29.62 "Hg5 mi
6:38 pm34 °FLight rain. Fog.5 mph100%29.56 "Hg1 mi
6:22 pm34 °FFog.5 mph100%29.55 "Hg1 mi
5:56 pm34 °FFog.No wind97%29.59 "Hg1 mi
5:35 pm34 °FFog.No wind100%29.52 "Hg1 mi
5:15 pm34 °FFog.No wind100%29.51 "Hg1 mi
4:56 pm35 °FFog.5 mph96%29.57 "Hg1 mi
4:37 pm36 °FFog.3 mph93%29.51 "Hg4 mi
4:15 pm37 °FPartly sunny.No wind87%29.50 "Hg9 mi
3:56 pm38 °FBroken clouds.No wind93%29.57 "Hg10 mi
3:32 pm37 °FMostly cloudy.No wind100%29.51 "Hg10 mi
3:24 pm37 °FCloudy.3 mph93%29.52 "Hg10 mi
2:56 pm35 °FLight rain. Overcast.3 mph96%29.60 "Hg10 mi
2:35 pm36 °FLight snow. Fog.5 mph93%29.54 "Hg2 mi
1:56 pm34 °FRain. Fog.5 mph97%29.62 "Hg2 mi
1:29 pm34 °FLight rain. Fog.No wind100%29.56 "Hg2 mi
1:09 pm34 °FRain. Fog.3 mph100%29.57 "Hg2 mi
12:56 pm34 °FLight rain. Fog.3 mph97%29.64 "Hg3 mi
12:35 pm34 °FLight rain. Fog.No wind100%29.59 "Hg1 mi
12:22 pm34 °FLight rain. Fog.3 mph100%29.61 "Hg1 mi
12:02 pm34 °FLight rain. Fog.No wind93%29.65 "Hg2 mi
11:38 am34 °FLight rain. Fog.5 mph93%29.68 "Hg2 mi
11:12 am34 °FLight rain. Fog.3 mph93%29.73 "Hg3 mi
10:56 am33 °FLight snow. Fog.No wind92%29.80 "Hg2 mi
9:56 am32 °FLight snow. Ice fog.3 mph96%29.82 "Hg1 mi
9:32 am32 °FLight snow. Ice fog.6 mph93%29.80 "Hg1 mi
9:21 am32 °FLight snow. Ice fog.3 mph93%29.82 "Hg1 mi
9:05 am32 °FLight snow. Ice fog.5 mph93%29.83 "Hg1 mi
8:34 am32 °FLight snow. Ice fog.6 mph93%29.83 "Hg1 mi
7:56 am31 °FLight snow. Ice fog.5 mph96%29.92 "Hg1 mi
7:21 am30 °FLight snow. Ice fog.6 mph100%29.89 "Hg1 mi
6:56 am31 °FIce fog.5 mph96%29.97 "Hg3 mi
5:56 am31 °FLight snow. Ice fog.5 mph96%29.99 "Hg4 mi
5:32 am30 °FLight snow. Ice fog.6 mph100%29.94 "Hg2 mi
4:56 am31 °FLow clouds.No wind92%30.03 "Hg10 mi
3:56 am30 °FLow clouds.3 mph96%30.06 "Hg10 mi
2:56 am30 °FIce fog.5 mph96%30.11 "Hg4 mi
Weather by CustomWeather, © 2018

See weather overview